Phoenix Deer Valley, AZ

11:41 AM MST on November 14, 2019 (GMT -0700)
Phoenix-Deer Valley Municipal

Weather History for KDVT - July, 2019

Change the Weather History Date:

Monday, July 29, 2019

  Actual Average Record
Temperature  
Mean Temperature 100 °F -  
Max Temperature 108 °F 101 °F 109 °F (2016)
Min Temperature 91 °F 81 °F 73 °F (2001)
Cooling Degree Days 34    
Growing Degree Days 50 (Base 50)    
Moisture  
Dew Point 57 °F    
Average Humidity 24    
Maximum Humidity 33    
Minimum Humidity 16    
Precipitation  
Precipitation 0.00 in - - ()
Sea Level Pressure  
Sea Level Pressure 29.82 in    
Wind  
Wind Speed 9 mph (SW)    
Max Wind Speed 17 mph    
Max Gust Speed 23 mph    
Visibility 10 miles    
Events      
Averages and records for this station are not official NWS values.
T = Trace of Precipitation, MM = Missing Value Source: NWS Daily Summary

Daily Weather History Graph

Daily Weather History Graph

Search for Another Location

Airport or City:

Astronomy

Jul. 29, 2019 Rise Set
Actual Time 5:38 AM MST 7:31 PM MST
Civil Twilight 5:10 AM MST 7:58 PM MST
Nautical Twilight 4:37 AM MST 8:31 PM MST
Astronomical Twilight 4:01 AM MST 9:06 PM MST
Moon 2:56 AM MST (7/29) 5:35 PM MST (7/29)
Length of Visible Light 14h 47m
Length of Day
13h 52m
Waning Crescent, 8% of the Moon is Illuminated
Jul 29
Waning Crescent
Jul 31
New
Aug 7
First Quarter
Aug 15
Full
Aug 23
Last Quarter

Hourly Weather History & Observations

Time (MST) Temp. Heat Index Dew Point Humidity Pressure Visibility Wind Dir Wind Speed Gust Speed Precip Events Conditions
5:53 AM - - - N/A% 29.87 in - North - - N/A   Unknown
6:53 AM - - - N/A% 29.88 in - North - - N/A   Unknown
7:53 AM 91.0 °F 90.0 °F 57.9 °F 33% 29.90 in 10.0 mi SSW 6.9 mph - N/A   Clear
8:53 AM 91.9 °F 90.6 °F 57.0 °F 31% 29.91 in 10.0 mi SW 4.6 mph - N/A   Partly Cloudy
9:53 AM 93.9 °F 92.9 °F 57.9 °F 30% 29.92 in 10.0 mi Calm Calm - N/A   Clear
10:53 AM 97.0 °F 96.1 °F 57.9 °F 27% 29.91 in 10.0 mi Calm Calm - N/A   Clear
11:53 AM 100.9 °F 100.5 °F 57.9 °F 24% 29.88 in 10.0 mi West 8.1 mph - N/A   Clear
12:53 PM 102.0 °F 102.2 °F 59.0 °F 24% 29.86 in 10.0 mi WSW 10.4 mph - N/A   Clear
1:53 PM 104.0 °F 104.0 °F 57.9 °F 22% 29.84 in 10.0 mi SW 11.5 mph 17.3 mph N/A   Clear
2:53 PM 105.1 °F 104.4 °F 57.0 °F 20% 29.81 in 10.0 mi SW 10.4 mph 19.6 mph N/A   Clear
3:53 PM 107.1 °F 106.7 °F 55.9 °F 19% 29.77 in 10.0 mi SW 16.1 mph 23.0 mph N/A   Clear
4:53 PM 106.0 °F 104.5 °F 54.0 °F 18% 29.75 in 10.0 mi SW 16.1 mph 20.7 mph N/A   Clear
5:53 PM 108.0 °F 105.9 °F 53.1 °F 16% 29.74 in 10.0 mi WSW 17.3 mph - N/A   Clear
6:53 PM 106.0 °F 103.9 °F 53.1 °F 17% 29.75 in 10.0 mi SW 15.0 mph - N/A   Clear
7:53 PM 100.9 °F 99.6 °F 55.9 °F 22% 29.69 in 10.0 mi SW 17.3 mph - N/A   Clear
8:53 PM 98.1 °F 96.8 °F 57.0 °F 25% 29.74 in 10.0 mi SW 17.3 mph - N/A   Clear
9:53 PM 96.1 °F 95.2 °F 57.9 °F 28% 29.79 in 10.0 mi South 10.4 mph - N/A   Clear
10:53 PM 96.1 °F 95.2 °F 57.9 °F 28% 29.79 in 10.0 mi SW 6.9 mph - N/A   Clear
11:53 PM 93.9 °F 92.2 °F 55.9 °F 28% 29.80 in 10.0 mi South 8.1 mph - N/A   Clear